No particular awareness of the weather is required.    There are no Weather-warnings


Meteo18 Weather Cam more information Meteo18 Weather Cam


Thunder radar more information blitzortung!


Rain radar more information rain snow radar


Visit our other weather sites:

Template documentation
and downloads

And another site



Weather Underground History page Text

Daily Summary for October 25, 2017 Units:  English    Metric   Both
« Previous Day
Next Day »
Daily Weekly Monthly Yearly Custom
  High: Low: Average:
Temperature: 72 °F 53.4 °F 59.9 °F
Dew Point: 60.6 °F 52.5 °F 56.5 °F
Humidity: 97 % 67 % 89 %
Wind Speed: 7 mph 0 mph 0.9 mph
Wind Gust: 7 mph - -
Wind:- - South
Pressure: 30.3 in 30.3 in -
Precipitation: 0.01 in    
Historical Graphs
 
 
Tabular Data for October 25, 2017
Time Temperature Dew Point Pressure Wind Wind Speed Wind Gust Humidity Rainfall Rate (Hourly)
00:02 57.4 °F 56.5 °F 30.3 in Calm     97 % 0 in
00:12 57.4 °F 56.5 °F 30.3 in Calm   1 mph 97 % 0 in
00:17 57.4 °F 56.5 °F 30.3 in SSW 1 mph 3 mph 97 % 0 in
00:22 57.4 °F 56.5 °F 30.3 in Calm   3 mph 97 % 0 in
00:27 57.2 °F 56.3 °F 30.3 in SSE 2 mph 3 mph 97 % 0 in
00:32 57 °F 56.1 °F 30.3 in SE 2 mph 4 mph 97 % 0 in
00:37 57 °F 56.1 °F 30.3 in South 2 mph 4 mph 97 % 0 in
00:42 57 °F 56.1 °F 30.3 in SSE 1 mph 4 mph 97 % 0 in
00:52 57 °F 56.1 °F 30.3 in Calm   3 mph 97 % 0 in
00:57 57 °F 56.1 °F 30.3 in South 1 mph 2 mph 97 % 0 in
01:02 57 °F 56.1 °F 30.3 in Calm   2 mph 97 % 0 in
01:12 57 °F 56.1 °F 30.3 in SW 1 mph 2 mph 97 % 0 in
01:22 57 °F 56.1 °F 30.3 in SSE 1 mph 3 mph 97 % 0 in
01:27 56.8 °F 55.9 °F 30.3 in South 2 mph 7 mph 97 % 0 in
01:42 56.8 °F 55.9 °F 30.3 in SE 1 mph 6 mph 97 % 0.01 in
01:47 56.8 °F 55.9 °F 30.3 in SE 4 mph 5 mph 97 % 0.01 in
01:52 56.8 °F 55.9 °F 30.3 in South 2 mph 5 mph 97 % 0.01 in
01:57 56.8 °F 55.9 °F 30.3 in SE 2 mph 6 mph 97 % 0.01 in
02:02 56.8 °F 55.9 °F 30.3 in SW 4 mph 6 mph 97 % 0.01 in
02:07 56.8 °F 55.9 °F 30.3 in SSW 3 mph 7 mph 97 % 0.01 in
02:12 56.8 °F 55.9 °F 30.3 in SW 2 mph 7 mph 97 % 0.01 in
02:17 56.8 °F 55.9 °F 30.3 in SSW 1 mph 7 mph 97 % 0.01 in
02:22 56.8 °F 55.9 °F 30.3 in Calm   7 mph 97 % 0.01 in
02:32 56.7 °F 55.8 °F 30.3 in SE 3 mph 4 mph 97 % 0.01 in
02:37 56.7 °F 55.8 °F 30.3 in SSW 3 mph 6 mph 97 % 0 in
02:42 56.7 °F 55.8 °F 30.3 in South 1 mph 6 mph 97 % 0 in
02:52 56.7 °F 55.8 °F 30.3 in SE 1 mph 6 mph 97 % 0 in
02:57 56.7 °F 55.8 °F 30.3 in SE 2 mph 5 mph 97 % 0 in
03:02 56.7 °F 55.8 °F 30.3 in SE 3 mph 5 mph 97 % 0 in
03:07 56.5 °F 55.6 °F 30.3 in SSE 1 mph 4 mph 97 % 0 in
03:12 56.5 °F 55.6 °F 30.3 in South 3 mph 4 mph 97 % 0 in
03:17 56.5 °F 55.6 °F 30.3 in SSW 1 mph 6 mph 97 % 0 in
03:27 56.5 °F 55.6 °F 30.3 in SE 7 mph 7 mph 97 % 0 in
03:32 56.5 °F 55.6 °F 30.3 in SE 2 mph 6 mph 97 % 0 in
03:37 56.3 °F 55.2 °F 30.3 in ESE 2 mph 7 mph 96 % 0 in
03:42 56.1 °F 55 °F 30.3 in SE 1 mph 7 mph 96 % 0 in
03:47 56.1 °F 55 °F 30.3 in Calm   7 mph 96 % 0 in
03:52 56.1 °F 55.2 °F 30.3 in SSW 1 mph 7 mph 97 % 0 in
04:02 56.1 °F 55.2 °F 30.3 in SSE 1 mph 5 mph 97 % 0 in
04:07 56.1 °F 55.2 °F 30.3 in SSE 2 mph 6 mph 97 % 0 in
04:12 56.1 °F 55.2 °F 30.3 in ESE 1 mph 6 mph 97 % 0 in
04:17 56.1 °F 55.2 °F 30.3 in ESE 2 mph 6 mph 97 % 0 in
04:22 56.1 °F 55.2 °F 30.3 in ESE 3 mph 6 mph 97 % 0 in
04:32 56.1 °F 55.2 °F 30.3 in SE 3 mph 6 mph 97 % 0 in
04:42 56.1 °F 55.2 °F 30.3 in SSE 2 mph 6 mph 97 % 0 in
04:47 56.1 °F 55.2 °F 30.3 in SE 1 mph 5 mph 97 % 0 in
04:52 56.1 °F 55.2 °F 30.3 in SSE 1 mph 5 mph 97 % 0 in
04:57 56.1 °F 55.2 °F 30.3 in Calm   4 mph 97 % 0 in
05:02 56.1 °F 55.2 °F 30.3 in SE 1 mph 4 mph 97 % 0 in
05:12 56.1 °F 55.2 °F 30.3 in SE 1 mph 6 mph 97 % 0 in
05:17 56.1 °F 55.2 °F 30.3 in Calm   6 mph 97 % 0 in
05:22 56.1 °F 55.2 °F 30.3 in Calm   6 mph 97 % 0 in
05:32 56.1 °F 55.2 °F 30.3 in SE 4 mph 7 mph 97 % 0 in
05:42 55.9 °F 55 °F 30.3 in SE 1 mph 5 mph 97 % 0 in
05:47 55.9 °F 55 °F 30.3 in South 2 mph 6 mph 97 % 0 in
05:52 55.9 °F 55 °F 30.3 in Calm   6 mph 97 % 0 in
06:02 55.9 °F 55 °F 30.3 in SE 1 mph 6 mph 97 % 0 in
06:12 55.8 °F 54.9 °F 30.3 in SE 1 mph 5 mph 97 % 0 in
06:17 55.8 °F 54.9 °F 30.3 in Calm   3 mph 97 % 0 in
06:22 55.8 °F 54.9 °F 30.3 in SSW 2 mph 3 mph 97 % 0 in
06:27 55.8 °F 54.9 °F 30.3 in SSE 2 mph 4 mph 97 % 0 in
06:32 55.8 °F 54.9 °F 30.3 in ESE 1 mph 4 mph 97 % 0 in
06:37 55.6 °F 54.7 °F 30.3 in Calm   3 mph 97 % 0 in
06:42 55.6 °F 54.7 °F 30.3 in Calm   3 mph 97 % 0 in
06:47 55.6 °F 54.7 °F 30.3 in Calm   4 mph 97 % 0 in
06:52 55.6 °F 54.7 °F 30.3 in Calm   4 mph 97 % 0 in
07:02 55.2 °F 54.1 °F 30.3 in Calm   3 mph 96 % 0 in
07:07 55 °F 54 °F 30.3 in Calm   1 mph 96 % 0 in
07:12 54.9 °F 53.8 °F 30.3 in Calm   1 mph 96 % 0 in
07:17 54.7 °F 53.6 °F 30.3 in Calm   2 mph 96 % 0 in
07:22 54.7 °F 53.8 °F 30.3 in Calm   2 mph 97 % 0 in
07:32 54.5 °F 53.6 °F 30.3 in Calm   1 mph 97 % 0 in
07:42 54.3 °F 53.4 °F 30.3 in Calm   1 mph 97 % 0 in
07:52 54.1 °F 53.2 °F 30.3 in Calm   1 mph 97 % 0 in
07:57 54.1 °F 53.2 °F 30.3 in Calm     97 % 0 in
08:02 54.1 °F 53.2 °F 30.3 in Calm     97 % 0 in
08:07 54.1 °F 53.2 °F 30.3 in Calm     97 % 0 in
08:12 54.1 °F 53.2 °F 30.3 in Calm     97 % 0 in
08:17 54 °F 53.1 °F 30.3 in Calm     97 % 0 in
08:22 53.8 °F 52.9 °F 30.3 in Calm     97 % 0 in
08:32 53.4 °F 52.5 °F 30.3 in Calm     97 % 0 in
08:42 53.4 °F 52.5 °F 30.3 in Calm     97 % 0 in
08:47 53.4 °F 52.5 °F 30.3 in Calm     97 % 0 in
08:52 53.4 °F 52.5 °F 30.3 in Calm     97 % 0 in
08:57 53.4 °F 52.5 °F 30.3 in Calm     97 % 0 in
09:02 53.6 °F 52.7 °F 30.3 in Calm     97 % 0 in
09:12 53.8 °F 52.9 °F 30.3 in Calm     97 % 0 in
09:17 54 °F 53.1 °F 30.3 in Calm     97 % 0 in
09:22 54.3 °F 53.4 °F 30.3 in Calm     97 % 0 in
09:32 54.9 °F 54 °F 30.3 in Calm     97 % 0 in
09:42 55.2 °F 54.3 °F 30.3 in Calm   1 mph 97 % 0 in
09:52 55.9 °F 55 °F 30.3 in Calm   1 mph 97 % 0 in
10:02 56.1 °F 54.7 °F 30.3 in SSE 2 mph 2 mph 95 % 0 in
10:12 56.1 °F 54.7 °F 30.3 in Calm   2 mph 95 % 0 in
10:17 56.5 °F 55 °F 30.3 in Calm   5 mph 95 % 0 in
10:22 56.8 °F 55.4 °F 30.3 in Calm   5 mph 95 % 0 in
10:32 56.7 °F 54.7 °F 30.3 in South 1 mph 5 mph 93 % 0 in
10:42 56.8 °F 54.9 °F 30.3 in Calm   4 mph 93 % 0 in
10:47 57.2 °F 55.2 °F 30.3 in South 2 mph 4 mph 93 % 0 in
10:52 57.6 °F 55.2 °F 30.3 in SSW 1 mph 4 mph 92 % 0 in
11:02 58.3 °F 55.9 °F 30.3 in SSE 3 mph 4 mph 92 % 0 in
11:07 58.3 °F 55.4 °F 30.3 in SW 2 mph 5 mph 90 % 0 in
11:12 58.5 °F 55.6 °F 30.3 in SW 3 mph 5 mph 90 % 0 in
11:17 58.6 °F 55.8 °F 30.3 in Calm   6 mph 90 % 0 in
11:22 59.2 °F 56.3 °F 30.3 in SE 1 mph 6 mph 90 % 0 in
11:32 59.7 °F 56.1 °F 30.3 in SSW 3 mph 5 mph 88 % 0 in
11:52 61.2 °F 57 °F 30.3 in SSE 1 mph 3 mph 86 % 0 in
11:57 61.3 °F 56.5 °F 30.3 in SE 2 mph 4 mph 84 % 0 in
12:02 61.5 °F 57.4 °F 30.3 in South 3 mph 4 mph 86 % 0 in
12:07 61.7 °F 56.8 °F 30.3 in ENE 1 mph 4 mph 84 % 0 in
12:12 62.2 °F 57.4 °F 30.3 in SSW 4 mph 4 mph 84 % 0 in
12:17 62.1 °F 56.8 °F 30.3 in SSW 2 mph 4 mph 83 % 0 in
12:22 62.4 °F 57.6 °F 30.3 in SSW 2 mph 4 mph 84 % 0 in
12:32 62.6 °F 57.4 °F 30.3 in East 1 mph 4 mph 83 % 0 in
12:42 63 °F 57.7 °F 30.3 in Calm   6 mph 83 % 0 in
12:47 63 °F 57.4 °F 30.3 in SSE 1 mph 5 mph 82 % 0 in
12:52 63.1 °F 57.9 °F 30.3 in Calm   5 mph 83 % 0 in
13:02 63 °F 57 °F 30.3 in Calm   4 mph 81 % 0 in
13:12 63.3 °F 57.4 °F 30.3 in SSW 2 mph 4 mph 81 % 0 in
13:17 63.5 °F 57.6 °F 30.3 in SSW 2 mph 4 mph 81 % 0 in
13:22 63.7 °F 57.7 °F 30.3 in SSW 1 mph 4 mph 81 % 0 in
13:32 64.6 °F 58.3 °F 30.3 in Calm   4 mph 80 % 0 in
13:42 65.1 °F 58.5 °F 30.3 in SW 3 mph 3 mph 79 % 0 in
13:52 65.3 °F 58.3 °F 30.3 in Calm   4 mph 78 % 0 in
14:02 65.8 °F 58.8 °F 30.3 in Calm   4 mph 78 % 0 in
14:12 66 °F 59 °F 30.3 in SW 2 mph 4 mph 78 % 0 in
14:17 66 °F 58.6 °F 30.3 in SSE 2 mph 6 mph 77 % 0 in
14:22 66.7 °F 59.7 °F 30.3 in SW 2 mph 6 mph 78 % 0 in
14:32 66.9 °F 59.2 °F 30.3 in SSW 2 mph 6 mph 76 % 0 in
14:42 67.1 °F 59.4 °F 30.3 in SSW 2 mph 5 mph 76 % 0 in
14:52 67.3 °F 58.6 °F 30.3 in South 3 mph 5 mph 74 % 0 in
15:02 67.6 °F 59.4 °F 30.3 in South 2 mph 6 mph 75 % 0 in
15:07 68.2 °F 59.5 °F 30.3 in WSW 3 mph 6 mph 74 % 0 in
15:12 68.4 °F 60.1 °F 30.3 in SSW 2 mph 6 mph 75 % 0 in
15:22 68.4 °F 59.4 °F 30.3 in SSW 1 mph 5 mph 73 % 0 in
15:32 69.3 °F 59.5 °F 30.3 in SW 3 mph 5 mph 71 % 0 in
15:42 68.9 °F 59.9 °F 30.3 in Calm   4 mph 73 % 0 in
15:47 69.6 °F 60.3 °F 30.3 in Calm   4 mph 72 % 0 in
15:52 69.6 °F 59.7 °F 30.3 in SSW 2 mph 4 mph 71 % 0 in
15:57 69.4 °F 59.5 °F 30.3 in Calm   5 mph 71 % 0 in
16:02 70 °F 59.7 °F 30.3 in Calm   5 mph 70 % 0 in
16:12 70.5 °F 60.3 °F 30.3 in SW 1 mph 4 mph 70 % 0 in
16:17 70.5 °F 59.9 °F 30.3 in WSW 1 mph 4 mph 69 % 0 in
16:22 70.5 °F 59.9 °F 30.3 in Calm   4 mph 69 % 0 in
16:32 70.9 °F 59.7 °F 30.3 in Calm   4 mph 68 % 0 in
16:37 70.7 °F 59.5 °F 30.3 in WSW 1 mph 3 mph 68 % 0 in
16:42 70.7 °F 60.1 °F 30.3 in Calm   3 mph 69 % 0 in
16:47 70.9 °F 59.7 °F 30.3 in Calm   3 mph 68 % 0 in
16:52 70.9 °F 60.3 °F 30.3 in Calm   3 mph 69 % 0 in
16:57 71.4 °F 60.3 °F 30.3 in Calm   2 mph 68 % 0 in
17:02 71.4 °F 60.3 °F 30.3 in Calm   2 mph 68 % 0 in
17:12 71.6 °F 60.1 °F 30.3 in Calm   2 mph 67 % 0 in
17:17 71.4 °F 60.3 °F 30.3 in Calm   3 mph 68 % 0 in
17:27 71.8 °F 60.6 °F 30.3 in Calm   3 mph 68 % 0 in
17:32 72 °F 60.4 °F 30.3 in Calm   3 mph 67 % 0 in
17:42 71.1 °F 60.4 °F 30.3 in Calm   2 mph 69 % 0 in
17:47 71.1 °F 60.4 °F 30.3 in Calm   2 mph 69 % 0 in
17:52 71.1 °F 60.4 °F 30.3 in Calm   2 mph 69 % 0 in
18:12 71.6 °F 60.1 °F 30.3 in Calm   1 mph 67 % 0 in
18:17 71.2 °F 60.1 °F 30.3 in Calm   1 mph 68 % 0 in
18:22 70.3 °F 60.1 °F 30.3 in East 1 mph 1 mph 70 % 0 in
18:27 69.3 °F 59.9 °F 30.3 in East 1 mph 1 mph 72 % 0 in
18:32 68.4 °F 59.7 °F 30.3 in Calm   2 mph 74 % 0 in
18:37 67.6 °F 59.4 °F 30.3 in Calm   2 mph 75 % 0 in
18:42 67.3 °F 59.9 °F 30.3 in Calm   1 mph 77 % 0 in
18:57 64.8 °F 59.2 °F 30.3 in Calm     82 % 0 in
19:02 64.4 °F 58.8 °F 30.3 in Calm     82 % 0 in
19:12 63.7 °F 58.8 °F 30.3 in Calm     84 % 0 in
19:17 63.1 °F 58.6 °F 30.3 in Calm     85 % 0 in
19:22 62.8 °F 58.5 °F 30.3 in Calm     86 % 0 in
19:27 62.4 °F 58.1 °F 30.3 in East 1 mph   86 % 0 in
19:32 62.2 °F 58.3 °F 30.3 in NNE 1 mph   87 % 0 in
19:37 62.2 °F 58.3 °F 30.3 in Calm   2 mph 87 % 0 in
19:42 62.2 °F 58.3 °F 30.3 in Calm   2 mph 87 % 0 in
19:47 61.9 °F 57.9 °F 30.3 in NNW 1 mph 1 mph 87 % 0 in
19:52 61.3 °F 58.1 °F 30.3 in Calm   1 mph 89 % 0 in
19:57 60.8 °F 57.6 °F 30.3 in NW 1 mph 1 mph 89 % 0 in
20:02 60.4 °F 57.6 °F 30.3 in NW 1 mph 1 mph 90 % 0 in
20:12 60.1 °F 57.4 °F 30.3 in Calm   1 mph 91 % 0 in
20:17 59.5 °F 56.8 °F 30.3 in NW 1 mph 1 mph 91 % 0 in
20:22 59.4 °F 57 °F 30.3 in Calm   1 mph 92 % 0 in
20:32 59.5 °F 57.6 °F 30.3 in Calm   1 mph 93 % 0 in
20:42 58.6 °F 56.7 °F 30.3 in NW 1 mph 1 mph 93 % 0 in
20:47 58.8 °F 57 °F 30.3 in North 1 mph 1 mph 94 % 0 in
20:52 59 °F 57.2 °F 30.3 in Calm   1 mph 94 % 0 in
20:57 59.2 °F 57.4 °F 30.3 in Calm   1 mph 94 % 0 in
21:02 58.8 °F 56.8 °F 30.3 in Calm   1 mph 93 % 0 in
21:12 58.5 °F 56.7 °F 30.3 in Calm   1 mph 94 % 0 in
21:17 58.3 °F 56.5 °F 30.3 in Calm   1 mph 94 % 0 in
21:22 58.3 °F 56.5 °F 30.3 in Calm   1 mph 94 % 0 in
21:27 58.1 °F 56.3 °F 30.3 in Calm   1 mph 94 % 0 in
21:32 58.1 °F 56.3 °F 30.3 in Calm   1 mph 94 % 0 in
21:42 57.9 °F 56.1 °F 30.3 in North 2 mph 2 mph 94 % 0 in
21:52 57.7 °F 55.9 °F 30.3 in Calm   2 mph 94 % 0 in
21:57 57.2 °F 55.4 °F 30.3 in Calm   2 mph 94 % 0 in
22:02 57.2 °F 55.8 °F 30.3 in Calm   2 mph 95 % 0 in
22:12 57.6 °F 56.1 °F 30.3 in Calm   2 mph 95 % 0 in
22:17 57.7 °F 56.3 °F 30.3 in Calm   2 mph 95 % 0 in
22:22 57.4 °F 55.6 °F 30.3 in Calm   2 mph 94 % 0 in
22:27 57.2 °F 55.8 °F 30.3 in Calm     95 % 0 in
22:32 57 °F 55.2 °F 30.3 in Calm     94 % 0 in
22:37 56.5 °F 54.9 °F 30.3 in Calm     94 % 0 in
22:44 56.5 °F 55 °F 30.3 in Calm     95 % 0 in
22:52 56.5 °F 55 °F 30.3 in Calm     95 % 0 in
23:02 56.1 °F 54.7 °F 30.3 in Calm     95 % 0 in
23:07 55.9 °F 54.5 °F 30.3 in Calm   1 mph 95 % 0 in
23:12 55.8 °F 54.3 °F 30.3 in NNE 1 mph 1 mph 95 % 0 in
23:17 55.6 °F 54.5 °F 30.3 in NNE 2 mph 2 mph 96 % 0 in
23:22 55.9 °F 54.9 °F 30.3 in North 1 mph 2 mph 96 % 0 in
23:32 55.9 °F 54.9 °F 30.3 in Calm   2 mph 96 % 0 in
23:42 55.2 °F 53.8 °F 30.3 in WNW 1 mph 2 mph 95 % 0 in
23:52 55 °F 54 °F 30.3 in Calm   2 mph 96 % 0 in
23:57 55.4 °F 54.3 °F 30.3 in Calm   2 mph 96 % 0 in
Meteo18
Compliments of Weather Underground - 4 mb

Script developed by  Jim McMurry - jmcmurry@mwt.net Adapted for the template by  Wim van der Kuil - Leuven-Template.eu

You find our weather info also at:

European Weather Network

Weather Underground

Equipment we use:

Weather-station
Davis Vue

Weather-program
Meteohub

Weather-server
Raspberry PI 2 B+

Provider
1 and 1

Davis Vue

Meteohub

Raspberry PI 2 B+

1 and 1